BEL8MN EKCH-EBBR

Flight info

Callsign BEL8MN
Flight time N/A
Altitude 34000
Route LANGO P999 ALS N872 LILSI Z310 WOODY
Aircraft A20N/M-DE3FGHIJ1LORVWY/HB1G1

Departure

Time 2026-05-05 15:38
Airport Copenhagen Kastrup Airport (EKCH)

Arrival

Time N/A
Airport Brussels Airport (EBBR)
Time Latitude Longitude Altitude Speed Heading
2026-05-05 15:27 55.62672 12.64429 21 ft 0 kts 101°
2026-05-05 15:31 55.62674 12.64415 21 ft 2 kts 101°
2026-05-05 15:31 55.62679 12.64390 21 ft 2 kts 127°
2026-05-05 15:31 55.62689 12.64371 21 ft 2 kts 146°
2026-05-05 15:31 55.62703 12.64360 21 ft 2 kts 167°
2026-05-05 15:32 55.62718 12.64358 21 ft 2 kts 188°
2026-05-05 15:32 55.62729 12.64363 21 ft 0 kts 205°
2026-05-05 15:32 55.62736 12.64369 21 ft 0 kts 208°
2026-05-05 15:33 55.62735 12.64368 21 ft 0 kts 208°
2026-05-05 15:33 55.62712 12.64348 21 ft 6 kts 204°
2026-05-05 15:34 55.62631 12.64290 21 ft 16 kts 202°
2026-05-05 15:34 55.62540 12.64360 21 ft 15 kts 125°
2026-05-05 15:34 55.62480 12.64522 21 ft 16 kts 123°
2026-05-05 15:34 55.62419 12.64687 21 ft 16 kts 121°
2026-05-05 15:35 55.62357 12.64856 20 ft 16 kts 123°
2026-05-05 15:35 55.62294 12.65026 20 ft 16 kts 123°
2026-05-05 15:35 55.62291 12.65214 19 ft 16 kts 84°
2026-05-05 15:35 55.62294 12.65427 19 ft 19 kts 89°
2026-05-05 15:36 55.62297 12.65669 17 ft 20 kts 89°
2026-05-05 15:36 55.62302 12.65919 16 ft 20 kts 84°
2026-05-05 15:36 55.62293 12.66107 16 ft 16 kts 156°
2026-05-05 15:36 55.62186 12.66175 16 ft 15 kts 181°
2026-05-05 15:37 55.62081 12.66045 16 ft 26 kts 222°
2026-05-05 15:37 55.61744 12.65521 20 ft 100 kts 221°
2026-05-05 15:37 55.61052 12.64455 24 ft 161 kts 222°
2026-05-05 15:37 55.60136 12.63038 355 ft 180 kts 226°
2026-05-05 15:38 55.59251 12.61591 1076 ft 176 kts 224°
2026-05-05 15:38 55.58314 12.60181 1757 ft 179 kts 223°
2026-05-05 15:38 55.57334 12.58723 2224 ft 192 kts 223°
2026-05-05 15:38 55.56290 12.57123 2656 ft 208 kts 227°
2026-05-05 15:39 55.55313 12.55083 3030 ft 228 kts 240°
2026-05-05 15:39 55.54551 12.52531 3563 ft 244 kts 248°
2026-05-05 15:39 55.53770 12.49808 4086 ft 262 kts 244°
2026-05-05 15:39 55.52851 12.46960 4811 ft 272 kts 242°
2026-05-05 15:40 55.51888 12.44080 5735 ft 273 kts 242°
2026-05-05 15:40 55.50927 12.41254 6678 ft 274 kts 241°
2026-05-05 15:40 55.49947 12.38395 7664 ft 275 kts 241°
2026-05-05 15:40 55.48962 12.35534 8616 ft 275 kts 241°
2026-05-05 15:41 55.47987 12.32704 9538 ft 274 kts 240°
2026-05-05 15:41 55.47013 12.29874 10452 ft 275 kts 240°
2026-05-05 15:41 55.45990 12.26897 10966 ft 290 kts 240°
2026-05-05 15:41 55.44914 12.23779 11388 ft 308 kts 240°
2026-05-05 15:42 55.43787 12.20523 11993 ft 318 kts 240°
2026-05-05 15:42 55.42630 12.17195 12807 ft 320 kts 240°
2026-05-05 15:42 55.41484 12.13906 13623 ft 322 kts 240°
2026-05-05 15:42 55.40309 12.10536 14415 ft 323 kts 240°
2026-05-05 15:43 55.39144 12.07197 15175 ft 326 kts 240°
2026-05-05 15:43 55.37958 12.03801 15920 ft 328 kts 240°
2026-05-05 15:43 55.36755 12.00362 16510 ft 335 kts 240°
2026-05-05 15:43 55.35540 11.96896 17111 ft 340 kts 240°
2026-05-05 15:44 55.34300 11.93362 17758 ft 343 kts 240°
2026-05-05 15:44 55.33044 11.89791 18411 ft 346 kts 240°
2026-05-05 15:44 55.31782 11.86208 19052 ft 349 kts 240°
2026-05-05 15:44 55.30505 11.82587 19693 ft 351 kts 240°
2026-05-05 15:45 55.29225 11.78961 20314 ft 354 kts 240°
2026-05-05 15:45 55.27925 11.75288 20903 ft 357 kts 240°
2026-05-05 15:45 55.26619 11.71600 21472 ft 360 kts 240°
2026-05-05 15:45 55.25290 11.67855 22040 ft 363 kts 240°
2026-05-05 15:46 55.24000 11.64113 22587 ft 365 kts 243°
2026-05-05 15:46 55.22839 11.60164 23131 ft 367 kts 245°
2026-05-05 15:46 55.21693 11.56141 23649 ft 370 kts 245°
2026-05-05 15:46 55.20533 11.52092 24158 ft 373 kts 245°
2026-05-05 15:47 55.19346 11.47989 24665 ft 376 kts 245°
2026-05-05 15:47 55.18568 11.45315 24981 ft 377 kts 244°
2026-05-05 15:47 55.16970 11.39852 25580 ft 382 kts 244°
2026-05-05 15:47 55.15742 11.35681 26008 ft 385 kts 244°
2026-05-05 15:48 55.14514 11.31520 26427 ft 388 kts 244°
2026-05-05 15:48 55.13250 11.27239 26867 ft 390 kts 244°
2026-05-05 15:48 55.12002 11.23025 27275 ft 393 kts 243°
2026-05-05 15:48 55.10737 11.18766 27651 ft 396 kts 243°
2026-05-05 15:49 55.09460 11.14479 28053 ft 398 kts 243°
2026-05-05 15:49 55.08187 11.10217 28552 ft 398 kts 243°
2026-05-05 15:49 55.06924 11.05996 29098 ft 396 kts 243°
2026-05-05 15:49 55.05647 11.01733 29627 ft 394 kts 243°
2026-05-05 15:50 55.04391 10.97550 30116 ft 393 kts 243°
2026-05-05 15:50 55.03114 10.93309 30608 ft 392 kts 243°
2026-05-05 15:50 55.01854 10.89134 31053 ft 392 kts 243°
2026-05-05 15:50 55.00597 10.84977 31467 ft 391 kts 243°
2026-05-05 15:51 54.99331 10.80796 31876 ft 391 kts 243°
2026-05-05 15:51 54.98056 10.76591 32261 ft 391 kts 243°
2026-05-05 15:51 54.96796 10.72441 32567 ft 392 kts 243°
2026-05-05 15:51 54.95531 10.68285 32833 ft 394 kts 243°
2026-05-05 15:52 54.94237 10.64040 33117 ft 395 kts 243°
2026-05-05 15:52 54.92943 10.59801 33411 ft 396 kts 243°
2026-05-05 15:52 54.91667 10.55626 33692 ft 397 kts 243°
2026-05-05 15:52 54.90363 10.51370 33870 ft 398 kts 243°
2026-05-05 15:53 54.89055 10.47124 33882 ft 398 kts 243°
2026-05-05 15:53 54.86433 10.38693 33890 ft 398 kts 243°
2026-05-05 15:54 54.83810 10.30236 33897 ft 398 kts 242°
2026-05-05 15:54 54.81202 10.21821 33899 ft 397 kts 242°
2026-05-05 15:55 54.78591 10.13423 33899 ft 397 kts 242°
2026-05-05 15:55 54.75966 10.05011 33897 ft 397 kts 242°
2026-05-05 15:56 54.73341 9.96632 33899 ft 397 kts 242°
2026-05-05 15:56 54.70703 9.88235 33896 ft 396 kts 242°
2026-05-05 15:57 54.68066 9.79871 33897 ft 396 kts 242°
2026-05-05 15:57 54.65434 9.71561 33901 ft 395 kts 242°
2026-05-05 15:58 54.62817 9.63320 33902 ft 395 kts 242°
2026-05-05 15:58 54.60177 9.55037 33902 ft 394 kts 242°
2026-05-05 15:59 54.57531 9.46765 33907 ft 394 kts 242°
2026-05-05 15:59 54.54885 9.38518 33908 ft 394 kts 242°
2026-05-05 16:00 54.52231 9.30269 33905 ft 393 kts 242°
2026-05-05 16:00 54.49579 9.22035 33901 ft 393 kts 242°
2026-05-05 16:01 54.46941 9.13884 33898 ft 392 kts 242°
2026-05-05 16:01 54.44291 9.05734 33891 ft 391 kts 242°
2026-05-05 16:02 54.41634 8.97590 33890 ft 390 kts 242°
2026-05-05 16:02 54.38984 8.89500 33886 ft 390 kts 242°
2026-05-05 16:03 54.36332 8.81428 33887 ft 390 kts 242°
2026-05-05 16:03 54.33673 8.73363 33892 ft 391 kts 241°
2026-05-05 16:04 54.30964 8.65171 33898 ft 391 kts 241°
2026-05-05 16:04 54.28272 8.57066 33892 ft 390 kts 242°
2026-05-05 16:05 54.25557 8.49020 33891 ft 390 kts 239°
2026-05-05 16:05 54.22494 8.41447 33890 ft 390 kts 234°
2026-05-05 16:06 54.18970 8.34420 33890 ft 392 kts 228°
2026-05-05 16:06 54.15087 8.27941 33894 ft 392 kts 226°
2026-05-05 16:07 54.11168 8.21535 33894 ft 391 kts 226°
2026-05-05 16:07 54.07230 8.15152 33892 ft 390 kts 226°
2026-05-05 16:08 54.03290 8.08801 33891 ft 389 kts 226°
2026-05-05 16:08 53.99352 8.02473 33889 ft 389 kts 225°
2026-05-05 16:09 53.95417 7.96160 33891 ft 390 kts 225°
2026-05-05 16:09 53.91464 7.89841 33893 ft 391 kts 225°
2026-05-05 16:10 53.87513 7.83564 33889 ft 390 kts 225°
2026-05-05 16:10 53.83541 7.77289 33892 ft 390 kts 225°
2026-05-05 16:11 53.79593 7.71052 33901 ft 390 kts 225°
2026-05-05 16:12 53.71664 7.58546 33907 ft 389 kts 225°
2026-05-05 16:13 53.61773 7.43032 33912 ft 390 kts 225°
2026-05-05 16:13 53.57803 7.36834 33906 ft 390 kts 225°
2026-05-05 16:14 53.49857 7.24444 33904 ft 391 kts 224°
2026-05-05 16:15 53.41856 7.12063 33908 ft 391 kts 223°
2026-05-05 16:16 53.33915 6.99699 33912 ft 391 kts 226°
2026-05-05 16:17 53.28479 6.89566 33902 ft 391 kts 229°
2026-05-05 16:18 53.23083 6.79338 33901 ft 392 kts 229°
2026-05-05 16:19 53.17669 6.69106 33905 ft 393 kts 229°
2026-05-05 16:19 53.12333 6.58781 33896 ft 393 kts 230°
2026-05-05 16:20 53.05270 6.44982 33903 ft 393 kts 230°
2026-05-05 16:22 52.96387 6.27749 33900 ft 395 kts 229°
2026-05-05 16:23 52.89209 6.13921 33899 ft 395 kts 228°
2026-05-05 16:23 52.83817 6.03654 33907 ft 395 kts 228°
2026-05-05 16:24 52.80213 5.96783 33906 ft 395 kts 228°
2026-05-05 16:24 52.76341 5.90449 33902 ft 396 kts 217°
2026-05-05 16:25 52.74124 5.87692 33902 ft 396 kts 217°
2026-05-05 16:25 52.67501 5.79559 33900 ft 397 kts 217°
2026-05-05 16:26 52.58653 5.68672 33893 ft 398 kts 217°
2026-05-05 16:27 52.54216 5.63227 33890 ft 398 kts 217°
2026-05-05 16:27 52.49767 5.57777 33887 ft 398 kts 217°
2026-05-05 16:28 52.45329 5.52357 33887 ft 398 kts 217°
2026-05-05 16:28 52.40900 5.46960 33885 ft 399 kts 217°
2026-05-05 16:29 52.36446 5.41543 33880 ft 399 kts 216°
2026-05-05 16:29 52.32008 5.36163 33878 ft 400 kts 216°
2026-05-05 16:30 52.27546 5.30752 33874 ft 400 kts 216°
2026-05-05 16:30 52.23049 5.25310 33576 ft 401 kts 215°
2026-05-05 16:31 52.20811 5.22615 33285 ft 400 kts 215°
2026-05-05 16:31 52.18574 5.19926 32889 ft 398 kts 215°
2026-05-05 16:31 52.16349 5.17380 32395 ft 397 kts 212°
2026-05-05 16:31 52.13985 5.15011 31723 ft 397 kts 209°
2026-05-05 16:32 52.11575 5.12894 31055 ft 397 kts 206°
2026-05-05 16:32 52.09098 5.10997 30399 ft 398 kts 203°
2026-05-05 16:32 52.06529 5.09301 29686 ft 399 kts 201°
2026-05-05 16:32 52.03905 5.07678 28958 ft 401 kts 201°
2026-05-05 16:33 52.01324 5.06069 28207 ft 403 kts 201°
2026-05-05 16:33 51.98674 5.04416 27488 ft 404 kts 201°
2026-05-05 16:33 51.96057 5.02675 26943 ft 401 kts 207°
2026-05-05 16:33 51.93739 5.00204 26357 ft 400 kts 216°
2026-05-05 16:34 51.91576 4.97480 25729 ft 400 kts 217°
2026-05-05 16:34 51.89374 4.94680 25075 ft 400 kts 217°
2026-05-05 16:34 51.87183 4.91958 24484 ft 398 kts 216°
2026-05-05 16:34 51.84963 4.89249 23942 ft 396 kts 216°
2026-05-05 16:35 51.82775 4.86607 23435 ft 393 kts 216°
2026-05-05 16:35 51.80607 4.84006 22927 ft 391 kts 216°
2026-05-05 16:35 51.78386 4.81353 22405 ft 389 kts 216°
2026-05-05 16:35 51.76216 4.78767 21886 ft 387 kts 216°
2026-05-05 16:36 51.74061 4.76205 21369 ft 386 kts 216°
2026-05-05 16:36 51.71916 4.73658 20872 ft 384 kts 216°
2026-05-05 16:36 51.69784 4.71131 20379 ft 382 kts 216°
2026-05-05 16:36 51.67631 4.68583 19882 ft 380 kts 216°
2026-05-05 16:37 51.65527 4.66096 19409 ft 378 kts 216°
2026-05-05 16:37 51.63427 4.63617 18919 ft 376 kts 216°
2026-05-05 16:37 51.61316 4.61128 18427 ft 375 kts 216°
2026-05-05 16:37 51.59221 4.58662 17941 ft 373 kts 216°
2026-05-05 16:38 51.57136 4.56210 17455 ft 372 kts 216°
2026-05-05 16:38 51.55061 4.53772 16977 ft 370 kts 216°
2026-05-05 16:38 51.52981 4.51332 16494 ft 368 kts 216°
2026-05-05 16:38 51.50939 4.48938 16002 ft 366 kts 216°
2026-05-05 16:39 51.48890 4.46537 15536 ft 363 kts 216°
2026-05-05 16:39 51.46851 4.44153 15065 ft 362 kts 216°
2026-05-05 16:39 51.44812 4.41773 14595 ft 360 kts 216°
2026-05-05 16:39 51.42791 4.39428 14124 ft 359 kts 214°
2026-05-05 16:40 51.40550 4.37735 13627 ft 355 kts 193°
2026-05-05 16:40 51.38121 4.37504 13165 ft 350 kts 171°
2026-05-05 16:40 51.35757 4.38273 12735 ft 347 kts 166°
2026-05-05 16:40 51.33398 4.39122 12302 ft 345 kts 166°
2026-05-05 16:41 51.31108 4.39940 11875 ft 343 kts 166°
2026-05-05 16:41 51.28780 4.40759 11442 ft 341 kts 167°
2026-05-05 16:41 51.26467 4.41564 11007 ft 339 kts 167°
2026-05-05 16:41 51.24162 4.42359 10581 ft 337 kts 167°
2026-05-05 16:42 51.21882 4.43141 10165 ft 334 kts 167°
2026-05-05 16:42 51.19658 4.43900 10059 ft 319 kts 167°
2026-05-05 16:42 51.17527 4.44627 9979 ft 305 kts 167°
2026-05-05 16:42 51.15507 4.45315 9910 ft 291 kts 167°
2026-05-05 16:43 51.13575 4.45972 9708 ft 284 kts 167°
2026-05-05 16:43 51.11659 4.46627 9380 ft 281 kts 167°
2026-05-05 16:43 51.09737 4.47281 9055 ft 279 kts 167°
2026-05-05 16:43 51.07865 4.47919 8737 ft 277 kts 167°
2026-05-05 16:44 51.05965 4.48564 8440 ft 274 kts 167°
2026-05-05 16:44 51.04111 4.49193 8159 ft 271 kts 167°
2026-05-05 16:44 51.02289 4.49810 7861 ft 270 kts 167°
2026-05-05 16:44 51.00466 4.50428 7562 ft 268 kts 167°
2026-05-05 16:45 50.98597 4.51062 7414 ft 278 kts 167°
2026-05-05 16:45 50.96688 4.51707 7263 ft 280 kts 167°
2026-05-05 16:45 50.94799 4.52344 7062 ft 272 kts 166°
2026-05-05 16:45 50.92993 4.52951 6982 ft 259 kts 166°
2026-05-05 16:46 50.91279 4.53528 6969 ft 244 kts 166°
2026-05-05 16:46 50.89767 4.54119 6914 ft 236 kts 161°
2026-05-05 16:46 50.88185 4.54916 6702 ft 240 kts 160°
2026-05-05 16:46 50.86581 4.55746 6278 ft 244 kts 160°
2026-05-05 16:47 50.84969 4.56581 5895 ft 246 kts 160°
2026-05-05 16:47 50.83350 4.57419 5618 ft 243 kts 160°
2026-05-05 16:47 50.81741 4.58249 5318 ft 242 kts 159°
2026-05-05 16:47 50.80136 4.59049 5005 ft 243 kts 165°
2026-05-05 16:48 50.78458 4.58969 4684 ft 246 kts 201°
2026-05-05 16:48 50.77192 4.57318 4528 ft 236 kts 243°
2026-05-05 16:48 50.76888 4.54904 4456 ft 216 kts 286°
2026-05-05 16:48 50.77478 4.52851 4266 ft 208 kts 305°
2026-05-05 16:49 50.78220 4.50794 3689 ft 219 kts 303°
2026-05-05 16:49 50.79028 4.48761 3053 ft 221 kts 321°
2026-05-05 16:49 50.80278 4.47462 2435 ft 217 kts 341°
2026-05-05 16:49 50.81677 4.46663 2050 ft 211 kts 355°
2026-05-05 16:50 50.83083 4.46839 1976 ft 194 kts 15°